Weather History for Buffalo, WY

Change the Weather History Date:

Friday, April 26, 2013

  Actual Average Record
Temperature  
Mean Temperature 52 °F 47 °F  
Max Temperature 68 °F 57 °F 81 °F (1977)
Min Temperature 36 °F 36 °F 26 °F (2008)
Degree Days  
Heating Degree Days 13 18  
Month to date heating degree days 757 583  
Since 1 July heating degree days 6641 6773  
Cooling Degree Days 0 0  
Month to date cooling degree days 0 0  
Year to date cooling degree days 0 0  
Growing Degree Days 2 (Base 50)    
Moisture  
Dew Point 25 °F    
Average Humidity 36    
Maximum Humidity 53    
Minimum Humidity 18    
Precipitation  
Precipitation 0.00 in 0.07 in 0.35 in (2014)
Month to date precipitation 0.66 0.96  
Year to date precipitation 1.35 2.65  
Sea Level Pressure  
Sea Level Pressure 30.05 in    
Wind  
Wind Speed 7 mph (West)    
Max Wind Speed 15 mph    
Max Gust Speed 24 mph    
Visibility 10 miles    
Events      
T = Trace of Precipitation, MM = Missing Value Source: NWS Daily Summary

Daily Weather History Graph

Daily Weather History Graph

Search for Another Location

Airport:

Trip Planner

Search our weather history database for the weather conditions in past years. The results will help you decide how hot, cold, wet, or windy it might be!

Date:

Astronomy

Apr. 26, 2013 Rise Set
Actual Time 6:04 AM MDT 8:05 PM MDT
Civil Twilight 5:33 AM MDT 8:36 PM MDT
Nautical Twilight 4:54 AM MDT 9:15 PM MDT
Astronomical Twilight 4:12 AM MDT 9:58 PM MDT
Moon 9:34 PM MDT (4/26) 6:32 AM MDT (4/26)
Length of Visible Light 15h 03m
Length of Day
14h 00m
Full, 99% of the Moon is Illuminated
Apr 26
Full
May 2
Last Quarter
May 9
New
May 17
First Quarter
May 24
Full

Hourly Weather History & Observations

Time (MDT) Temp. Windchill Dew Point Humidity Pressure Visibility Wind Dir Wind Speed Gust Speed Precip Events Conditions
1:53 AM 44.1 °F 38.1 °F 21.9 °F 42% 29.96 in 10.0 mi West 11.5 mph - N/A   Partly Cloudy
2:53 AM 43.0 °F 38.2 °F 21.0 °F 42% 29.97 in 10.0 mi WSW 8.1 mph - N/A   Clear
3:53 AM 42.1 °F 36.6 °F 21.9 °F 45% 29.99 in 10.0 mi WSW 9.2 mph - N/A   Clear
4:53 AM 39.9 °F 35.1 °F 21.9 °F 49% 30.02 in 10.0 mi WNW 6.9 mph - N/A   Clear
5:53 AM 39.0 °F 33.4 °F 23.0 °F 53% 30.04 in 10.0 mi WNW 8.1 mph - N/A   Clear
6:53 AM 42.1 °F 39.2 °F 26.1 °F 53% 30.06 in 10.0 mi WSW 4.6 mph - N/A   Clear
7:53 AM 53.1 °F - 27.0 °F 37% 30.08 in 10.0 mi WNW 5.8 mph - N/A   Clear
8:53 AM 57.0 °F - 26.1 °F 30% 30.09 in 10.0 mi North 10.4 mph - N/A   Clear
9:53 AM 59.0 °F - 24.1 °F 26% 30.10 in 10.0 mi North 10.4 mph - N/A   Clear
10:53 AM 60.1 °F - 26.1 °F 27% 30.11 in 10.0 mi NNW 10.4 mph - N/A   Clear
11:53 AM 61.0 °F - 25.0 °F 25% 30.11 in 10.0 mi Calm Calm - N/A   Clear
12:53 PM 62.1 °F - 25.0 °F 24% 30.10 in 10.0 mi Variable 4.6 mph - N/A   Clear
1:53 PM 63.0 °F - 27.0 °F 26% 30.07 in 10.0 mi East 4.6 mph - N/A   Clear
2:53 PM 64.0 °F - 26.1 °F 24% 30.06 in 10.0 mi SSE 8.1 mph - N/A   Clear
3:53 PM 66.0 °F - 26.1 °F 22% 30.04 in 10.0 mi SE 10.4 mph 18.4 mph N/A   Clear
4:53 PM 66.0 °F - 21.9 °F 19% 30.04 in 10.0 mi East 5.8 mph - N/A   Clear
5:53 PM 66.0 °F - 21.0 °F 18% 30.03 in 10.0 mi East 4.6 mph - N/A   Clear
6:53 PM 64.9 °F - 24.1 °F 21% 30.02 in 10.0 mi ENE 3.5 mph - N/A   Clear
7:53 PM 61.0 °F - 21.9 °F 22% 30.01 in 10.0 mi Calm Calm - N/A   Clear
8:53 PM 48.0 °F - 30.9 °F 52% 30.06 in 10.0 mi West 6.9 mph - N/A   Clear
9:53 PM 48.0 °F - 28.9 °F 48% 30.06 in 10.0 mi West 5.8 mph - N/A   Clear
10:53 PM 48.9 °F - 27.0 °F 43% 30.06 in 10.0 mi WSW 9.2 mph - N/A   Clear
11:53 PM 50.0 °F - 25.0 °F 38% 30.05 in 10.0 mi West 9.2 mph - N/A   Clear